COSMOS 2251 DEB, 40793

Orbit data source: Space-Track

COSMOS 2251 DEB, 40793 is space debris in LEO originally from a launch on Wed, 16 Jun 1993 UTC launched from the Plesetsk Missile And Space Complex (PKMTR). The debris from Iridium 33, an American commercial communications satellite, has been tracked extensively since its accidental collision with the defunct Russian satellite Cosmos 2251 in 2009. This event, occurring at high speed in low Earth orbit (LEO), generated thousands of pieces of space debris, significantly increasing the risk of further collisions. The Iridium 33 debris cloud has impacted space traffic management and orbital debris mitigation strategies, making it a subject of ongoing study in space situational awareness.

Loading next visibility...
COSMOS 2251 DEB details
Identifier
40793, 1993-036BVW
Orbit
LEO
Last TLE update1 week ago
Origin
Flag of CISKVR (CIS)
ManufacturerUnknown
MissionSpacecraft
Bus & MotorUnknown
MassUnknown
Launch date (UTC)
1993-06-16 (32 years ago)
Launch vehicleUnknown
Launch site
Plesetsk Missile And Space Complex (PKMTR)
Object type
Payload
Rocket body
Debris
Shape & HBRUnknown
Radar Cross SectionSmall (<0.1 m²)

Expand to show TLE details & history

TLE from 1 week ago
0 COSMOS 2251 DEB
1 40793U 93036BVW 24353.50994411  .00003382  00000-0  17305-2 0  9998
2 40793  73.9785  74.6402 0221059 308.8623  49.2967 14.04104028632008
Epoch: 2024-12-18T12:14Z
Definitive object data (Epoch: 2024-12-18T12:14:19.171Z)
Latitude-0.00003°
Longitude163.45718°
Altitude779.628 km
Speed7.517 km/s
True Right ascension04h 58m 33s
True Declination0° 00' 00"
Sunlit
Object was in full shadow at TLE epoch
Visualization TLE readout
Latitude9.39952°
Longitude151.95621°
Altitude841.682 km
Speed7.453 km/s
Apparent Right ascension03h 32m 48s
Apparent Declination-13° 50' 53"
Sunlit
Object is in full shadow
Visualization observer readout
Local Sidereal Time14:34:40
Azimuth329.852° NNW
Elevation-60.979°
Doppler factor1
Orbital elements
Apogee altitude1,037.668 km
Perigee altitude716.893 km
Semi-major axis7,255.418 km
Eccentricity0.0221059
Inclination73.9785°
RAAN74.6402°
Arg. of periapsis308.8623°
True anomaly51.25191°
Mean anomaly49.2967°
Eccentric anomaly50.27079°
Mean motion3.51196 °/min
BSTAR0.0017305
Orbital period102.51 mins
Loading maneuver chart data...

COSMOS 2251 DEB Visibility forecast

Observer location: undefined°, undefined

Span
Click to sort rows by Start time (UTC) header in descending order
Start Az.
Max El. time (UTC)
Max El. Az.
Max El.
End time (UTC)
End Az.
12 mins2024-12-26 15:44:42.451Z338.68° N2024-12-26 15:50:42.451Z210.613° SW44.45°2024-12-26 15:56:42.451Z166.933° S
10 mins2024-12-27 04:57:42.451Z176.027° S2024-12-27 05:02:42.451Z83.773° E38.945°2024-12-27 05:07:42.451Z28.739° NE
8 mins2024-12-27 06:43:42.451Z260.677° W2024-12-27 06:46:42.451Z296.8° NW21.865°2024-12-27 06:51:42.451Z352.739° N
7 mins2024-12-27 13:58:42.451Z22.724° NE2024-12-27 14:01:42.451Z56.248° ENE19.824°2024-12-27 14:05:42.451Z97.75° ESE
|